Brooksville, FL

8:19 PM EST on December 14, 2017 (GMT -0500)
Hernando County

Weather History for KBKV - June, 2013

Change the Weather History Date:

Wednesday, June 12, 2013

  Actual Average Record
Temperature  
Mean Temperature 81 °F -  
Max Temperature 91 °F 88 °F 95 °F (1998)
Min Temperature 71 °F 67 °F 66 °F (1998)
Cooling Degree Days 16    
Growing Degree Days 31 (Base 50)    
Moisture  
Dew Point 72 °F    
Average Humidity 76    
Maximum Humidity 97    
Minimum Humidity 48    
Precipitation  
Precipitation 0.00 in - - ()
Sea Level Pressure  
Sea Level Pressure 30.07 in    
Wind  
Wind Speed 3 mph (WNW)    
Max Wind Speed 10 mph    
Max Gust Speed -    
Visibility 10 miles    
Events      
Averages and records for this station are not official NWS values.
T = Trace of Precipitation, MM = Missing Value Source: NWS Daily Summary

Daily Weather History Graph

Daily Weather History Graph

Search for Another Location

Airport or City:

Trip Planner

Search our weather history database for the weather conditions in past years. The results will help you decide how hot, cold, wet, or windy it might be!

Date:

Astronomy

Jun. 12, 2013 Rise Set
Actual Time 6:31 AM EDT 8:27 PM EDT
Civil Twilight 6:04 AM EDT 8:54 PM EDT
Nautical Twilight 5:32 AM EDT 9:27 PM EDT
Astronomical Twilight 4:58 AM EDT 10:01 PM EDT
Moon 9:56 AM EDT (6/12) 11:19 PM EDT (6/12)
Length of Visible Light 14h 49m
Length of Day
13h 56m
Waxing Crescent, 14% of the Moon is Illuminated
Jun 12
Waxing Crescent
Jun 16
First Quarter
Jun 23
Full
Jun 30
Last Quarter
Jul 8
New

Hourly Weather History & Observations

Time (EDT) Temp. Heat Index Dew Point Humidity Pressure Visibility Wind Dir Wind Speed Gust Speed Precip Events Conditions
12:53 AM 73.9 °F - 73.0 °F 97% 30.08 in 10.0 mi ENE 3.5 mph - N/A   Clear
1:53 AM 73.9 °F - 72.0 °F 93% 30.08 in 10.0 mi SSE 3.5 mph - N/A   Clear
2:25 AM 73.4 °F - 71.6 °F 94% 30.08 in 10.0 mi Calm Calm - N/A   Mostly Cloudy
2:51 AM 73.4 °F - 71.6 °F 94% 30.07 in 10.0 mi Calm Calm - N/A   Mostly Cloudy
2:53 AM 73.9 °F - 72.0 °F 93% 30.07 in 10.0 mi Calm Calm - N/A   Mostly Cloudy
3:53 AM 73.9 °F - 72.0 °F 93% 30.07 in 10.0 mi Calm Calm - N/A   Clear
4:53 AM 73.0 °F - 72.0 °F 96% 30.08 in 10.0 mi Calm Calm - N/A   Clear
5:53 AM 72.0 °F - 71.1 °F 97% 30.07 in 10.0 mi Calm Calm - N/A   Clear
6:35 AM 71.6 °F - 69.8 °F 94% 30.09 in 10.0 mi Calm Calm - N/A   Partly Cloudy
6:53 AM 72.0 °F - 71.1 °F 97% 30.08 in 10.0 mi Calm Calm - N/A   Clear
7:53 AM 77.0 °F - 73.0 °F 88% 30.09 in 10.0 mi NNW 4.6 mph - N/A   Clear
8:53 AM 82.0 °F 87.9 °F 73.9 °F 76% 30.10 in 10.0 mi North 4.6 mph - N/A   Clear
9:53 AM 84.9 °F 93.3 °F 75.0 °F 72% 30.10 in 10.0 mi NNW 4.6 mph - N/A   Clear
10:53 AM 87.1 °F 96.3 °F 75.0 °F 67% 30.10 in 10.0 mi Calm Calm - N/A   Scattered Clouds
11:03 AM 87.8 °F 95.6 °F 73.4 °F 62% 30.10 in 10.0 mi WNW 5.8 mph - N/A   Mostly Cloudy
11:14 AM 87.8 °F 95.6 °F 73.4 °F 62% 30.10 in 10.0 mi Calm Calm - N/A   Scattered Clouds
11:53 AM 89.1 °F 98.0 °F 73.9 °F 61% 30.09 in 10.0 mi WNW 5.8 mph - N/A   Unknown
12:53 PM 90.0 °F 97.9 °F 73.0 °F 57% 30.08 in 10.0 mi West 8.1 mph - N/A   Scattered Clouds
1:53 PM 91.0 °F 96.6 °F 70.0 °F 50% 30.07 in 10.0 mi WNW 8.1 mph - N/A   Clear
2:53 PM 91.9 °F 98.4 °F 71.1 °F 50% 30.06 in 10.0 mi NW 8.1 mph - N/A   Clear
3:53 PM 91.0 °F 95.6 °F 69.1 °F 48% 30.04 in 10.0 mi West 10.4 mph - N/A   Clear
4:53 PM 90.0 °F 93.6 °F 68.0 °F 48% 30.04 in 10.0 mi WNW 9.2 mph - N/A   Clear
5:53 PM 89.1 °F 94.1 °F 70.0 °F 53% 30.03 in 10.0 mi West 8.1 mph - N/A   Clear
6:53 PM 87.1 °F 93.6 °F 72.0 °F 61% 30.05 in 10.0 mi NW 6.9 mph - N/A   Clear
7:53 PM 82.9 °F 88.0 °F 72.0 °F 69% 30.03 in 10.0 mi West 9.2 mph - N/A   Clear
8:53 PM 81.0 °F 86.2 °F 73.9 °F 79% 30.05 in 10.0 mi Calm Calm - N/A   Clear
9:53 PM 80.1 °F 84.5 °F 73.9 °F 81% 30.03 in 10.0 mi WNW 3.5 mph - N/A   Clear
10:53 PM 78.1 °F - 75.0 °F 90% 30.05 in 10.0 mi Calm Calm - N/A   Clear
11:53 PM 75.9 °F - 73.9 °F 94% 30.07 in 10.0 mi SE 6.9 mph - N/A   Clear